Time,TemperatureF,DewpointF,PressureIn,WindDirection,WindDirectionDegrees,WindSpeedMPH,WindSpeedGustMPH,Humidity,HourlyPrecipIn,Conditions,Clouds,dailyrainin,SoftwareType,DateUTC
2013-03-10 00:00:00,25.9,20.9,30.42,South,180,0.0,0.0,81,0.00,CLR,,0.00,WeatherDisplay:10.37,2013-03-10 05:00:00,
2013-03-10 00:05:00,25.9,20.9,30.42,South,180,0.0,0.0,81,0.00,CLR,,0.00,WeatherDisplay:10.37,2013-03-10 05:05:00,
2013-03-10 00:10:00,25.9,20.9,30.42,South,180,0.0,0.0,81,0.00,CLR,,0.00,WeatherDisplay:10.37,2013-03-10 05:10:00,
2013-03-10 00:15:00,25.7,20.7,30.43,South,180,0.0,0.0,81,0.00,CLR,,0.00,WeatherDisplay:10.37,2013-03-10 05:15:00,
2013-03-10 00:21:00,25.5,20.8,30.43,South,180,0.0,0.0,82,0.00,CLR,,0.00,WeatherDisplay:10.37,2013-03-10 05:21:00,
2013-03-10 00:26:00,25.5,20.8,30.43,South,180,0.0,0.0,82,0.00,CLR,,0.00,WeatherDisplay:10.37,2013-03-10 05:26:00,
2013-03-10 00:31:00,25.3,20.6,30.42,South,180,0.0,0.0,82,0.00,CLR,,0.00,WeatherDisplay:10.37,2013-03-10 05:31:00,
2013-03-10 00:36:00,25.3,20.6,30.42,South,180,0.0,0.0,82,0.00,CLR,,0.00,WeatherDisplay:10.37,2013-03-10 05:36:00,
2013-03-10 00:41:00,25.3,20.6,30.42,South,180,0.0,0.0,82,0.00,CLR,,0.00,WeatherDisplay:10.37,2013-03-10 05:41:00,
2013-03-10 00:46:00,25.3,20.6,30.42,South,180,0.0,0.0,82,0.00,CLR,,0.00,WeatherDisplay:10.37,2013-03-10 05:46:00,
2013-03-10 00:51:00,25.2,20.4,30.44,South,180,0.0,0.0,82,0.00,CLR,,0.00,WeatherDisplay:10.37,2013-03-10 05:51:00,
2013-03-10 00:56:00,25.2,20.4,30.44,South,180,0.0,0.0,82,0.00,CLR,,0.00,WeatherDisplay:10.37,2013-03-10 05:56:00,
2013-03-10 01:01:00,25.2,20.7,30.44,South,180,0.0,0.0,83,0.00,CLR,,0.00,WeatherDisplay:10.37,2013-03-10 06:01:00,
2013-03-10 01:06:00,25.2,20.7,30.44,South,180,0.0,0.0,83,0.00,CLR,,0.00,WeatherDisplay:10.37,2013-03-10 06:06:00,
2013-03-10 01:11:00,25.3,20.9,30.44,South,180,0.0,0.0,83,0.00,CLR,,0.00,WeatherDisplay:10.37,2013-03-10 06:11:00,
2013-03-10 01:16:00,25.2,20.7,30.44,South,180,0.0,0.0,83,0.00,CLR,,0.00,WeatherDisplay:10.37,2013-03-10 06:16:00,
2013-03-10 01:21:00,25.2,20.7,30.44,South,180,0.0,0.0,83,0.00,CLR,,0.00,WeatherDisplay:10.37,2013-03-10 06:21:00,
2013-03-10 01:26:00,25.3,20.9,30.44,South,180,0.0,0.0,83,0.00,CLR,,0.00,WeatherDisplay:10.37,2013-03-10 06:26:00,
2013-03-10 01:31:00,25.2,20.7,30.44,South,180,0.0,0.0,83,0.00,CLR,,0.00,WeatherDisplay:10.37,2013-03-10 06:31:00,
2013-03-10 01:36:00,25.3,21.2,30.44,South,180,0.0,0.0,84,0.00,CLR,,0.00,WeatherDisplay:10.37,2013-03-10 06:36:00,
2013-03-10 01:41:00,25.3,21.2,30.44,South,180,0.0,0.0,84,0.00,CLR,,0.00,WeatherDisplay:10.37,2013-03-10 06:41:00,
2013-03-10 01:46:00,25.5,21.4,30.44,South,180,0.0,0.0,84,0.00,CLR,,0.00,WeatherDisplay:10.37,2013-03-10 06:46:00,
2013-03-10 01:51:00,25.3,21.2,30.43,South,180,0.0,0.0,84,0.00,CLR,,0.00,WeatherDisplay:10.37,2013-03-10 06:51:00,
2013-03-10 01:56:00,25.2,21.0,30.43,South,180,0.0,0.0,84,0.00,CLR,,0.00,WeatherDisplay:10.37,2013-03-10 06:56:00,
2013-03-10 03:01:00,25.3,21.5,30.43,South,180,0.0,0.0,85,0.00,CLR,,0.00,WeatherDisplay:10.37,2013-03-10 07:01:00,
2013-03-10 03:06:00,25.3,21.5,30.43,South,180,0.0,0.0,85,0.00,CLR,,0.00,WeatherDisplay:10.37,2013-03-10 07:06:00,
2013-03-10 03:11:00,25.3,21.5,30.42,South,180,0.0,0.0,85,0.00,CLR,,0.00,WeatherDisplay:10.37,2013-03-10 07:11:00,
2013-03-10 03:16:00,25.5,21.6,30.42,South,180,0.0,0.0,85,0.00,CLR,,0.00,WeatherDisplay:10.37,2013-03-10 07:16:00,
2013-03-10 03:21:00,25.5,21.6,30.42,South,180,0.0,0.0,85,0.00,CLR,,0.00,WeatherDisplay:10.37,2013-03-10 07:21:00,
2013-03-10 03:26:00,25.7,21.8,30.42,South,180,0.0,0.0,85,0.00,CLR,,0.00,WeatherDisplay:10.37,2013-03-10 07:26:00,
2013-03-10 03:31:00,25.9,22.0,30.43,South,180,0.0,0.0,85,0.00,CLR,,0.00,WeatherDisplay:10.37,2013-03-10 07:31:00,
2013-03-10 03:36:00,26.1,22.4,30.43,South,180,0.0,0.0,86,0.00,CLR,,0.00,WeatherDisplay:10.37,2013-03-10 07:36:00,
2013-03-10 03:41:00,26.2,22.6,30.43,South,180,0.0,0.0,86,0.00,CLR,,0.00,WeatherDisplay:10.37,2013-03-10 07:41:00,
2013-03-10 03:46:00,26.6,23.0,30.43,South,180,0.0,0.0,86,0.00,CLR,,0.00,WeatherDisplay:10.37,2013-03-10 07:46:00,
2013-03-10 03:51:00,26.6,23.0,30.43,South,180,0.0,0.0,86,0.00,CLR,,0.00,WeatherDisplay:10.37,2013-03-10 07:51:00,
2013-03-10 03:56:00,27.0,23.6,30.43,South,180,0.0,0.0,87,0.00,CLR,,0.00,WeatherDisplay:10.37,2013-03-10 07:56:00,
2013-03-10 04:01:00,27.5,24.1,30.43,South,180,0.0,0.0,87,0.00,CLR,,0.00,WeatherDisplay:10.37,2013-03-10 08:01:00,
2013-03-10 04:06:00,27.7,24.3,30.43,South,180,0.0,0.0,87,0.00,CLR,,0.00,WeatherDisplay:10.37,2013-03-10 08:06:00,
2013-03-10 04:11:00,27.9,24.5,30.42,South,180,0.0,0.0,87,0.00,CLR,,0.00,WeatherDisplay:10.37,2013-03-10 08:11:00,
2013-03-10 04:16:00,28.0,24.9,30.42,South,180,0.0,0.0,88,0.00,CLR,,0.00,WeatherDisplay:10.37,2013-03-10 08:16:00,
2013-03-10 04:21:00,28.2,25.1,30.42,South,180,0.0,0.0,88,0.00,CLR,,0.00,WeatherDisplay:10.37,2013-03-10 08:21:00,
2013-03-10 04:26:00,28.6,25.5,30.42,South,180,0.0,0.0,88,0.00,CLR,,0.00,WeatherDisplay:10.37,2013-03-10 08:26:00,
2013-03-10 04:31:00,28.9,26.1,30.43,South,180,0.0,0.0,89,0.00,CLR,,0.00,WeatherDisplay:10.37,2013-03-10 08:31:00,
2013-03-10 04:36:00,28.8,25.9,30.43,South,180,0.0,0.0,89,0.00,CLR,,0.00,WeatherDisplay:10.37,2013-03-10 08:36:00,
2013-03-10 04:41:00,28.9,26.1,30.43,South,180,0.0,0.0,89,0.00,CLR,,0.00,WeatherDisplay:10.37,2013-03-10 08:41:00,
2013-03-10 04:46:00,29.1,26.3,30.43,South,180,0.0,0.0,89,0.00,CLR,,0.00,WeatherDisplay:10.37,2013-03-10 08:46:00,
2013-03-10 04:51:00,29.3,26.5,30.43,South,180,0.0,0.0,89,0.00,CLR,,0.00,WeatherDisplay:10.37,2013-03-10 08:51:00,
2013-03-10 04:56:00,29.5,26.6,30.43,South,180,0.0,0.0,89,0.00,CLR,,0.00,WeatherDisplay:10.37,2013-03-10 08:56:00,
2013-03-10 05:01:00,29.5,26.6,30.43,South,180,0.0,0.0,89,0.00,CLR,,0.00,WeatherDisplay:10.37,2013-03-10 09:01:00,
2013-03-10 05:06:00,29.5,26.6,30.43,South,180,0.0,0.0,89,0.00,CLR,,0.00,WeatherDisplay:10.37,2013-03-10 09:06:00,
2013-03-10 05:11:00,29.7,26.8,30.44,South,180,0.0,0.0,89,0.00,CLR,,0.00,WeatherDisplay:10.37,2013-03-10 09:11:00,
2013-03-10 05:16:00,29.7,27.1,30.44,South,180,0.0,0.0,90,0.00,CLR,,0.00,WeatherDisplay:10.37,2013-03-10 09:16:00,
2013-03-10 05:21:00,29.7,27.1,30.44,South,180,0.0,0.0,90,0.00,CLR,,0.00,WeatherDisplay:10.37,2013-03-10 09:21:00,
2013-03-10 05:26:00,29.3,26.7,30.44,South,180,0.0,0.0,90,0.00,CLR,,0.00,WeatherDisplay:10.37,2013-03-10 09:26:00,
2013-03-10 05:31:00,29.5,26.9,30.43,South,180,0.0,0.0,90,0.00,CLR,,0.00,WeatherDisplay:10.37,2013-03-10 09:31:00,
2013-03-10 05:36:00,29.5,26.9,30.43,South,180,0.0,0.0,90,0.00,CLR,,0.00,WeatherDisplay:10.37,2013-03-10 09:36:00,
2013-03-10 05:41:00,29.1,26.6,30.43,South,180,0.0,0.0,90,0.00,CLR,,0.00,WeatherDisplay:10.37,2013-03-10 09:41:00,
2013-03-10 05:46:00,28.9,26.4,30.43,South,180,0.0,0.0,90,0.00,CLR,,0.00,WeatherDisplay:10.37,2013-03-10 09:46:00,
2013-03-10 05:51:00,28.6,26.0,30.44,South,180,0.0,0.0,90,0.00,CLR,,0.00,WeatherDisplay:10.37,2013-03-10 09:51:00,
2013-03-10 05:56:00,28.4,25.6,30.44,South,180,0.0,0.0,89,0.00,CLR,,0.00,WeatherDisplay:10.37,2013-03-10 09:56:00,
2013-03-10 06:01:00,28.2,25.4,30.44,South,180,0.0,0.0,89,0.00,CLR,,0.00,WeatherDisplay:10.37,2013-03-10 10:01:00,
2013-03-10 06:06:00,28.0,25.2,30.44,South,180,0.0,0.0,89,0.00,CLR,,0.00,WeatherDisplay:10.37,2013-03-10 10:06:00,
2013-03-10 06:11:00,28.0,25.2,30.44,South,180,0.0,0.0,89,0.00,CLR,,0.00,WeatherDisplay:10.37,2013-03-10 10:11:00,
2013-03-10 06:16:00,27.3,24.5,30.44,South,180,0.0,0.0,89,0.00,CLR,,0.00,WeatherDisplay:10.37,2013-03-10 10:16:00,
2013-03-10 06:21:00,27.3,24.5,30.44,South,180,0.0,0.0,89,0.00,CLR,,0.00,WeatherDisplay:10.37,2013-03-10 10:21:00,
2013-03-10 06:26:00,27.3,24.5,30.44,South,180,0.0,0.0,89,0.00,CLR,,0.00,WeatherDisplay:10.37,2013-03-10 10:26:00,
2013-03-10 06:31:00,27.1,24.3,30.44,South,180,0.0,0.0,89,0.00,CLR,,0.00,WeatherDisplay:10.37,2013-03-10 10:31:00,
2013-03-10 06:36:00,26.8,24.0,30.44,South,180,0.0,0.0,89,0.00,CLR,,0.00,WeatherDisplay:10.37,2013-03-10 10:36:00,
2013-03-10 06:41:00,26.6,23.8,30.44,South,180,0.0,0.0,89,0.00,CLR,,0.00,WeatherDisplay:10.37,2013-03-10 10:41:00,
2013-03-10 06:46:00,26.4,23.6,30.44,South,180,0.0,0.0,89,0.00,CLR,,0.00,WeatherDisplay:10.37,2013-03-10 10:46:00,
2013-03-10 06:51:00,26.2,23.4,30.44,South,180,0.0,0.0,89,0.00,CLR,,0.00,WeatherDisplay:10.37,2013-03-10 10:51:00,
2013-03-10 06:57:00,26.2,23.4,30.44,South,180,0.0,0.0,89,0.00,CLR,,0.00,WeatherDisplay:10.37,2013-03-10 10:57:00,
2013-03-10 07:02:00,26.1,23.3,30.44,South,180,0.0,0.0,89,0.00,CLR,,0.00,WeatherDisplay:10.37,2013-03-10 11:02:00,
2013-03-10 07:07:00,25.9,23.1,30.44,South,180,0.0,0.0,89,0.00,CLR,,0.00,WeatherDisplay:10.37,2013-03-10 11:07:00,
2013-03-10 07:12:00,25.9,23.1,30.44,South,180,0.0,0.0,89,0.00,CLR,,0.00,WeatherDisplay:10.37,2013-03-10 11:12:00,
2013-03-10 07:17:00,25.9,23.1,30.44,South,180,0.0,0.0,89,0.00,CLR,,0.00,WeatherDisplay:10.37,2013-03-10 11:17:00,
2013-03-10 07:22:00,26.1,23.3,30.44,South,180,0.0,0.0,89,0.00,CLR,,0.00,WeatherDisplay:10.37,2013-03-10 11:22:00,
2013-03-10 07:27:00,26.2,23.4,30.44,South,180,0.0,0.0,89,0.00,CLR,,0.00,WeatherDisplay:10.37,2013-03-10 11:27:00,
2013-03-10 07:32:00,26.2,23.4,30.45,South,180,0.0,0.0,89,0.00,CLR,,0.00,WeatherDisplay:10.37,2013-03-10 11:32:00,
2013-03-10 07:37:00,27.0,24.2,30.45,South,180,0.0,0.0,89,0.00,CLR,,0.00,WeatherDisplay:10.37,2013-03-10 11:37:00,
2013-03-10 07:42:00,27.3,24.5,30.45,South,180,0.0,0.0,89,0.00,CLR,,0.00,WeatherDisplay:10.37,2013-03-10 11:42:00,
2013-03-10 07:47:00,27.9,25.3,30.45,South,180,0.0,0.0,90,0.00,CLR,,0.00,WeatherDisplay:10.37,2013-03-10 11:47:00,
2013-03-10 07:52:00,27.9,25.3,30.46,South,180,0.0,0.0,90,0.00,CLR,,0.00,WeatherDisplay:10.37,2013-03-10 11:52:00,
2013-03-10 07:57:00,28.4,25.8,30.46,South,180,0.0,0.0,90,0.00,CLR,,0.00,WeatherDisplay:10.37,2013-03-10 11:57:00,
2013-03-10 08:02:00,28.8,26.2,30.46,South,180,0.0,0.0,90,0.00,CLR,,0.00,WeatherDisplay:10.37,2013-03-10 12:02:00,
2013-03-10 08:07:00,29.5,27.2,30.46,South,180,0.0,0.0,91,0.00,CLR,,0.00,WeatherDisplay:10.37,2013-03-10 12:07:00,
2013-03-10 08:12:00,29.7,27.4,30.47,South,180,0.0,0.0,91,0.00,CLR,,0.00,WeatherDisplay:10.37,2013-03-10 12:12:00,
2013-03-10 08:17:00,30.2,27.9,30.47,South,180,0.0,0.0,91,0.00,CLR,,0.00,WeatherDisplay:10.37,2013-03-10 12:17:00,
2013-03-10 08:22:00,30.4,28.1,30.47,South,180,0.0,0.0,91,0.00,CLR,,0.00,WeatherDisplay:10.37,2013-03-10 12:22:00,
2013-03-10 08:27:00,30.9,28.6,30.47,South,180,0.0,0.0,91,0.00,CLR,,0.00,WeatherDisplay:10.37,2013-03-10 12:27:00,
2013-03-10 08:32:00,31.1,28.8,30.48,South,180,0.0,0.0,91,0.00,CLR,,0.00,WeatherDisplay:10.37,2013-03-10 12:32:00,
2013-03-10 08:37:00,31.8,29.8,30.48,South,180,0.0,0.0,92,0.00,CLR,,0.00,WeatherDisplay:10.37,2013-03-10 12:37:00,
2013-03-10 08:42:00,32.2,30.1,30.48,South,180,0.0,0.0,92,0.00,CLR,,0.00,WeatherDisplay:10.37,2013-03-10 12:42:00,
2013-03-10 08:47:00,32.5,30.5,30.48,South,180,0.0,0.0,92,0.00,CLR,,0.00,WeatherDisplay:10.37,2013-03-10 12:47:00,
2013-03-10 08:52:00,32.7,30.7,30.49,South,180,0.0,0.0,92,0.00,CLR,,0.00,WeatherDisplay:10.37,2013-03-10 12:52:00,
2013-03-10 08:57:00,33.3,31.2,30.49,South,180,0.0,0.0,92,0.00,CLR,,0.00,WeatherDisplay:10.37,2013-03-10 12:57:00,
2013-03-10 09:02:00,33.8,31.5,30.49,South,180,0.0,0.0,91,0.00,CLR,,0.00,WeatherDisplay:10.37,2013-03-10 13:02:00,
2013-03-10 09:07:00,34.2,31.8,30.49,South,180,0.0,0.0,91,0.00,CLR,,0.00,WeatherDisplay:10.37,2013-03-10 13:07:00,
2013-03-10 09:12:00,34.3,32.0,30.49,South,180,0.0,0.0,91,0.00,CLR,,0.00,WeatherDisplay:10.37,2013-03-10 13:12:00,
2013-03-10 09:17:00,35.1,32.7,30.49,South,180,0.0,0.0,91,0.00,CLR,,0.00,WeatherDisplay:10.37,2013-03-10 13:17:00,
2013-03-10 09:22:00,35.4,32.8,30.49,South,180,0.0,0.0,90,0.00,CLR,,0.00,WeatherDisplay:10.37,2013-03-10 13:22:00,
2013-03-10 09:27:00,35.6,32.7,30.49,South,180,0.0,0.0,89,0.00,CLR,,0.00,WeatherDisplay:10.37,2013-03-10 13:27:00,
2013-03-10 09:32:00,35.8,32.6,30.49,South,180,0.0,0.0,88,0.00,CLR,,0.00,WeatherDisplay:10.37,2013-03-10 13:32:00,
2013-03-10 09:37:00,36.7,33.2,30.49,South,180,0.0,0.0,87,0.00,CLR,,0.00,WeatherDisplay:10.37,2013-03-10 13:37:00,
2013-03-10 09:42:00,36.9,33.1,30.49,South,180,0.0,0.0,86,0.00,CLR,,0.00,WeatherDisplay:10.37,2013-03-10 13:42:00,
2013-03-10 09:47:00,37.2,32.5,30.49,South,180,0.0,0.0,83,0.00,CLR,,0.00,WeatherDisplay:10.37,2013-03-10 13:47:00,
2013-03-10 09:52:00,37.6,32.6,30.49,South,180,0.0,0.0,82,0.00,CLR,,0.00,WeatherDisplay:10.37,2013-03-10 13:52:00,
2013-03-10 09:57:00,38.1,32.5,30.49,South,180,0.0,0.0,80,0.00,CLR,,0.00,WeatherDisplay:10.37,2013-03-10 13:57:00,
2013-03-10 10:02:00,38.3,32.4,30.49,South,180,0.0,0.0,79,0.00,CLR,,0.00,WeatherDisplay:10.37,2013-03-10 14:02:00,
2013-03-10 10:07:00,38.5,31.6,30.49,South,180,0.0,0.0,76,0.00,CLR,,0.00,WeatherDisplay:10.37,2013-03-10 14:07:00,
2013-03-10 10:12:00,38.5,31.6,30.49,South,180,0.0,0.0,76,0.00,CLR,,0.00,WeatherDisplay:10.37,2013-03-10 14:12:00,
2013-03-10 10:17:00,38.8,31.3,30.49,South,180,0.0,0.0,74,0.00,CLR,,0.00,WeatherDisplay:10.37,2013-03-10 14:17:00,
2013-03-10 10:22:00,39.2,31.6,30.49,South,180,0.0,0.0,74,0.00,CLR,,0.00,WeatherDisplay:10.37,2013-03-10 14:22:00,
2013-03-10 10:27:00,39.2,30.6,30.49,South,180,0.0,0.0,71,0.00,CLR,,0.00,WeatherDisplay:10.37,2013-03-10 14:27:00,
2013-03-10 10:32:00,39.4,30.8,30.50,South,180,0.0,0.0,71,0.00,CLR,,0.00,WeatherDisplay:10.37,2013-03-10 14:32:00,
2013-03-10 10:37:00,39.6,30.2,30.50,South,180,0.0,0.0,69,0.00,CLR,,0.00,WeatherDisplay:10.37,2013-03-10 14:37:00,
2013-03-10 10:42:00,39.9,30.6,30.50,South,180,0.0,0.0,69,0.00,CLR,,0.00,WeatherDisplay:10.37,2013-03-10 14:42:00,
2013-03-10 10:47:00,40.1,30.4,30.50,South,180,0.0,0.0,68,0.00,CLR,,0.00,WeatherDisplay:10.37,2013-03-10 14:47:00,
2013-03-10 10:52:00,40.1,30.4,30.50,South,180,0.0,0.0,68,0.00,CLR,,0.00,WeatherDisplay:10.37,2013-03-10 14:52:00,
2013-03-10 10:57:00,40.1,29.6,30.50,South,180,0.0,0.0,66,0.00,CLR,,0.00,WeatherDisplay:10.37,2013-03-10 14:57:00,
2013-03-10 11:02:00,40.8,30.0,30.50,South,180,0.0,0.0,65,0.00,CLR,,0.00,WeatherDisplay:10.37,2013-03-10 15:02:00,
2013-03-10 11:07:00,41.0,27.8,30.50,South,180,0.0,0.0,59,0.00,CLR,,0.00,WeatherDisplay:10.37,2013-03-10 15:07:00,
2013-03-10 11:12:00,41.2,27.9,30.50,South,180,0.0,0.0,59,0.00,CLR,,0.00,WeatherDisplay:10.37,2013-03-10 15:12:00,
2013-03-10 11:17:00,41.5,27.8,30.50,South,180,0.0,0.0,58,0.00,CLR,,0.00,WeatherDisplay:10.37,2013-03-10 15:17:00,
2013-03-10 11:22:00,41.5,27.4,30.50,South,180,0.0,0.0,57,0.00,CLR,,0.00,WeatherDisplay:10.37,2013-03-10 15:22:00,
2013-03-10 11:27:00,41.7,26.7,30.50,South,180,0.0,0.0,55,0.00,CLR,,0.00,WeatherDisplay:10.37,2013-03-10 15:27:00,
2013-03-10 11:32:00,42.4,27.8,30.49,South,180,0.0,0.0,56,0.00,CLR,,0.00,WeatherDisplay:10.37,2013-03-10 15:32:00,
2013-03-10 11:37:00,41.7,24.9,30.49,South,180,0.0,0.0,51,0.00,CLR,,0.00,WeatherDisplay:10.37,2013-03-10 15:37:00,
2013-03-10 11:42:00,41.4,25.0,30.49,South,180,0.0,0.0,52,0.00,CLR,,0.00,WeatherDisplay:10.37,2013-03-10 15:42:00,
2013-03-10 11:47:00,41.2,25.8,30.49,South,180,0.0,0.0,54,0.00,CLR,,0.00,WeatherDisplay:10.37,2013-03-10 15:47:00,
2013-03-10 11:53:00,40.6,25.3,30.50,South,180,0.0,0.0,54,0.00,CLR,,0.00,WeatherDisplay:10.37,2013-03-10 15:53:00,
2013-03-10 11:57:00,40.6,25.7,30.50,South,180,0.0,0.0,55,0.00,CLR,,0.00,WeatherDisplay:10.37,2013-03-10 15:57:00,
2013-03-10 12:03:00,41.2,24.9,30.50,South,180,0.0,0.0,52,0.00,CLR,,0.00,WeatherDisplay:10.37,2013-03-10 16:03:00,
2013-03-10 12:08:00,41.2,24.9,30.50,South,180,0.0,0.0,52,0.00,CLR,,0.00,WeatherDisplay:10.37,2013-03-10 16:08:00,
2013-03-10 12:13:00,41.9,24.6,30.48,South,180,0.0,0.0,50,0.00,CLR,,0.00,WeatherDisplay:10.37,2013-03-10 16:13:00,
2013-03-10 12:18:00,41.9,25.1,30.48,South,180,0.0,0.0,51,0.00,CLR,,0.00,WeatherDisplay:10.37,2013-03-10 16:18:00,
2013-03-10 12:23:00,41.9,25.1,30.48,South,180,0.0,0.0,51,0.00,CLR,,0.00,WeatherDisplay:10.37,2013-03-10 16:23:00,
2013-03-10 12:28:00,41.9,25.1,30.48,South,180,0.0,0.0,51,0.00,CLR,,0.00,WeatherDisplay:10.37,2013-03-10 16:28:00,
2013-03-10 12:33:00,42.1,24.3,30.48,South,180,0.0,0.0,49,0.00,CLR,,0.00,WeatherDisplay:10.37,2013-03-10 16:33:00,
2013-03-10 12:38:00,41.9,24.1,30.48,South,180,0.0,0.0,49,0.00,CLR,,0.00,WeatherDisplay:10.37,2013-03-10 16:38:00,
2013-03-10 12:43:00,41.9,24.1,30.48,South,180,0.0,0.0,49,0.00,CLR,,0.00,WeatherDisplay:10.37,2013-03-10 16:43:00,
2013-03-10 12:48:00,42.1,24.3,30.48,South,180,0.0,0.0,49,0.00,CLR,,0.00,WeatherDisplay:10.37,2013-03-10 16:48:00,
2013-03-10 12:53:00,42.6,24.8,30.48,South,180,0.0,0.0,49,0.00,CLR,,0.00,WeatherDisplay:10.37,2013-03-10 16:53:00,
2013-03-10 12:58:00,42.3,24.4,30.48,South,180,0.0,0.0,49,0.00,CLR,,0.00,WeatherDisplay:10.37,2013-03-10 16:58:00,
2013-03-10 13:03:00,42.6,24.8,30.48,South,180,0.0,0.0,49,0.00,CLR,,0.00,WeatherDisplay:10.37,2013-03-10 17:03:00,
2013-03-10 13:08:00,43.3,24.9,30.48,South,180,0.0,0.0,48,0.00,CLR,,0.00,WeatherDisplay:10.37,2013-03-10 17:08:00,
2013-03-10 13:13:00,43.9,25.9,30.48,South,180,0.0,0.0,49,0.00,CLR,,0.00,WeatherDisplay:10.37,2013-03-10 17:13:00,
2013-03-10 13:18:00,43.2,24.3,30.48,South,180,0.0,0.0,47,0.00,CLR,,0.00,WeatherDisplay:10.37,2013-03-10 17:18:00,
2013-03-10 13:23:00,43.2,25.3,30.48,South,180,0.0,0.0,49,0.00,CLR,,0.00,WeatherDisplay:10.37,2013-03-10 17:23:00,
2013-03-10 13:28:00,43.0,24.1,30.48,South,180,0.0,0.0,47,0.00,CLR,,0.00,WeatherDisplay:10.37,2013-03-10 17:28:00,
2013-03-10 13:33:00,43.5,25.1,30.47,South,180,0.0,0.0,48,0.00,CLR,,0.00,WeatherDisplay:10.37,2013-03-10 17:33:00,
2013-03-10 13:38:00,44.1,25.1,30.47,South,180,0.0,0.0,47,0.00,CLR,,0.00,WeatherDisplay:10.37,2013-03-10 17:38:00,
2013-03-10 13:43:00,43.9,23.9,30.47,South,180,0.0,0.0,45,0.00,CLR,,0.00,WeatherDisplay:10.37,2013-03-10 17:43:00,
2013-03-10 13:48:00,44.4,24.9,30.47,South,180,0.0,0.0,46,0.00,CLR,,0.00,WeatherDisplay:10.37,2013-03-10 17:48:00,
2013-03-10 13:53:00,44.8,23.1,30.45,South,180,0.0,0.0,42,0.00,CLR,,0.00,WeatherDisplay:10.37,2013-03-10 17:53:00,
2013-03-10 13:58:00,44.4,22.7,30.45,South,180,0.0,0.0,42,0.00,CLR,,0.00,WeatherDisplay:10.37,2013-03-10 17:58:00,
2013-03-10 14:04:00,44.4,22.7,30.45,South,180,0.0,0.0,42,0.00,CLR,,0.00,WeatherDisplay:10.37,2013-03-10 18:04:00,
2013-03-10 14:09:00,45.1,23.9,30.45,South,180,0.0,0.0,43,0.00,CLR,,0.00,WeatherDisplay:10.37,2013-03-10 18:09:00,
2013-03-10 14:14:00,45.7,23.3,30.46,South,180,0.0,0.0,41,0.00,CLR,,0.00,WeatherDisplay:10.37,2013-03-10 18:14:00,
2013-03-10 14:19:00,46.0,23.0,30.46,South,180,0.0,0.0,40,0.00,CLR,,0.00,WeatherDisplay:10.37,2013-03-10 18:19:00,
2013-03-10 14:24:00,46.2,23.2,30.46,South,180,0.0,0.0,40,0.00,CLR,,0.00,WeatherDisplay:10.37,2013-03-10 18:24:00,
2013-03-10 14:29:00,46.6,24.1,30.46,South,180,0.0,0.0,41,0.00,CLR,,0.00,WeatherDisplay:10.37,2013-03-10 18:29:00,
2013-03-10 14:34:00,46.6,22.3,30.46,South,180,0.0,0.0,38,0.00,CLR,,0.00,WeatherDisplay:10.37,2013-03-10 18:34:00,
2013-03-10 14:39:00,46.9,23.8,30.46,South,180,0.0,0.0,40,0.00,CLR,,0.00,WeatherDisplay:10.37,2013-03-10 18:39:00,
2013-03-10 14:44:00,48.0,24.8,30.46,South,180,0.0,0.0,40,0.00,CLR,,0.00,WeatherDisplay:10.37,2013-03-10 18:44:00,
2013-03-10 14:49:00,47.5,22.5,30.46,South,180,0.0,0.0,37,0.00,CLR,,0.00,WeatherDisplay:10.37,2013-03-10 18:49:00,
2013-03-10 14:54:00,48.2,23.7,30.45,South,180,0.0,0.0,38,0.00,CLR,,0.00,WeatherDisplay:10.37,2013-03-10 18:54:00,
2013-03-10 14:59:00,47.8,23.4,30.45,South,180,0.0,0.0,38,0.00,CLR,,0.00,WeatherDisplay:10.37,2013-03-10 18:59:00,
2013-03-10 15:04:00,48.2,23.1,30.45,South,180,0.0,0.0,37,0.00,CLR,,0.00,WeatherDisplay:10.37,2013-03-10 19:04:00,
2013-03-10 15:09:00,48.4,23.3,30.45,South,180,0.0,0.0,37,0.00,CLR,,0.00,WeatherDisplay:10.37,2013-03-10 19:09:00,
2013-03-10 15:14:00,48.2,21.8,30.44,South,180,0.0,0.0,35,0.00,CLR,,0.00,WeatherDisplay:10.37,2013-03-10 19:14:00,
2013-03-10 15:19:00,48.6,23.4,30.44,South,180,0.0,0.0,37,0.00,CLR,,0.00,WeatherDisplay:10.37,2013-03-10 19:19:00,
2013-03-10 15:24:00,48.0,22.3,30.44,South,180,0.0,0.0,36,0.00,CLR,,0.00,WeatherDisplay:10.37,2013-03-10 19:24:00,
2013-03-10 15:29:00,48.6,22.8,30.44,South,180,0.0,0.0,36,0.00,CLR,,0.00,WeatherDisplay:10.37,2013-03-10 19:29:00,
2013-03-10 15:34:00,48.2,21.8,30.44,South,180,0.0,0.0,35,0.00,CLR,,0.00,WeatherDisplay:10.37,2013-03-10 19:34:00,
2013-03-10 15:39:00,48.4,21.3,30.44,South,180,0.0,0.0,34,0.00,CLR,,0.00,WeatherDisplay:10.37,2013-03-10 19:39:00,
2013-03-10 15:44:00,48.4,21.3,30.44,South,180,0.0,0.0,34,0.00,CLR,,0.00,WeatherDisplay:10.37,2013-03-10 19:44:00,
2013-03-10 15:49:00,48.9,21.7,30.44,South,180,0.0,0.0,34,0.00,CLR,,0.00,WeatherDisplay:10.37,2013-03-10 19:49:00,
2013-03-10 15:54:00,49.3,23.4,30.44,South,180,0.0,0.0,36,0.00,CLR,,0.00,WeatherDisplay:10.37,2013-03-10 19:54:00,
2013-03-10 15:59:00,49.6,23.7,30.44,South,180,0.0,0.0,36,0.00,CLR,,0.00,WeatherDisplay:10.37,2013-03-10 19:59:00,
2013-03-10 16:04:00,48.7,22.3,30.44,South,180,0.0,0.0,35,0.00,CLR,,0.00,WeatherDisplay:10.37,2013-03-10 20:04:00,
2013-03-10 16:10:00,48.9,23.1,30.44,South,180,0.0,0.0,36,0.00,CLR,,0.00,WeatherDisplay:10.37,2013-03-10 20:10:00,
2013-03-10 16:15:00,51.4,24.7,30.44,South,180,0.0,0.0,35,0.00,CLR,,0.00,WeatherDisplay:10.37,2013-03-10 20:15:00,
2013-03-10 16:20:00,51.4,24.7,30.44,South,180,0.0,0.0,35,0.00,CLR,,0.00,WeatherDisplay:10.37,2013-03-10 20:20:00,
2013-03-10 16:25:00,52.9,26.6,30.44,South,180,0.0,0.0,36,0.00,CLR,,0.00,WeatherDisplay:10.37,2013-03-10 20:25:00,
2013-03-10 16:30:00,51.6,22.7,30.44,South,180,0.0,0.0,32,0.00,CLR,,0.00,WeatherDisplay:10.37,2013-03-10 20:30:00,
2013-03-10 16:35:00,49.1,21.2,30.43,South,180,0.0,0.0,33,0.00,CLR,,0.00,WeatherDisplay:10.37,2013-03-10 20:35:00,
2013-03-10 16:40:00,50.4,20.8,30.43,South,180,0.0,0.0,31,0.00,CLR,,0.00,WeatherDisplay:10.37,2013-03-10 20:40:00,
2013-03-10 16:45:00,50.5,21.7,30.43,South,180,0.0,0.0,32,0.00,CLR,,0.00,WeatherDisplay:10.37,2013-03-10 20:45:00,
2013-03-10 16:50:00,51.8,23.6,30.43,South,180,0.0,0.0,33,0.00,CLR,,0.00,WeatherDisplay:10.37,2013-03-10 20:50:00,
2013-03-10 16:55:00,51.1,22.9,30.43,South,180,0.0,0.0,33,0.00,CLR,,0.00,WeatherDisplay:10.37,2013-03-10 20:55:00,
2013-03-10 17:00:00,51.1,22.9,30.43,South,180,0.0,0.0,33,0.00,CLR,,0.00,WeatherDisplay:10.37,2013-03-10 21:00:00,
2013-03-10 17:05:00,51.8,24.3,30.43,South,180,0.0,0.0,34,0.00,CLR,,0.00,WeatherDisplay:10.37,2013-03-10 21:05:00,
2013-03-10 17:10:00,52.7,25.8,30.43,South,180,0.0,0.0,35,0.00,CLR,,0.00,WeatherDisplay:10.37,2013-03-10 21:10:00,
2013-03-10 17:15:00,51.1,24.3,30.43,South,180,0.0,0.0,35,0.00,CLR,,0.00,WeatherDisplay:10.37,2013-03-10 21:15:00,
2013-03-10 17:20:00,50.5,23.9,30.43,South,180,0.0,0.0,35,0.00,CLR,,0.00,WeatherDisplay:10.37,2013-03-10 21:20:00,
2013-03-10 17:25:00,50.9,23.5,30.43,South,180,0.0,0.0,34,0.00,CLR,,0.00,WeatherDisplay:10.37,2013-03-10 21:25:00,
2013-03-10 17:30:00,48.4,20.6,30.42,South,180,0.0,0.0,33,0.00,CLR,,0.00,WeatherDisplay:10.37,2013-03-10 21:30:00,
2013-03-10 17:35:00,47.3,21.7,30.42,South,180,0.0,0.0,36,0.00,CLR,,0.00,WeatherDisplay:10.37,2013-03-10 21:35:00,
2013-03-10 17:41:00,45.5,20.1,30.42,South,180,0.0,0.0,36,0.00,CLR,,0.00,WeatherDisplay:10.37,2013-03-10 21:41:00,
2013-03-10 17:46:00,44.8,20.7,30.42,South,180,0.0,0.0,38,0.00,CLR,,0.00,WeatherDisplay:10.37,2013-03-10 21:46:00,
2013-03-10 17:51:00,44.1,21.3,30.43,South,180,0.0,0.0,40,0.00,CLR,,0.00,WeatherDisplay:10.37,2013-03-10 21:51:00,
2013-03-10 17:56:00,43.2,20.4,30.43,South,180,0.0,0.0,40,0.00,CLR,,0.00,WeatherDisplay:10.37,2013-03-10 21:56:00,
2013-03-10 18:01:00,42.4,21.5,30.43,South,180,0.0,0.0,43,0.00,CLR,,0.00,WeatherDisplay:10.37,2013-03-10 22:01:00,
2013-03-10 18:06:00,42.1,22.2,30.43,South,180,0.0,0.0,45,0.00,CLR,,0.00,WeatherDisplay:10.37,2013-03-10 22:06:00,
2013-03-10 18:11:00,41.7,22.4,30.42,South,180,0.0,0.0,46,0.00,CLR,,0.00,WeatherDisplay:10.37,2013-03-10 22:11:00,
2013-03-10 18:16:00,41.0,22.3,30.42,South,180,0.0,0.0,47,0.00,CLR,,0.00,WeatherDisplay:10.37,2013-03-10 22:16:00,
2013-03-10 18:21:00,40.3,22.1,30.42,South,180,0.0,0.0,48,0.00,CLR,,0.00,WeatherDisplay:10.37,2013-03-10 22:21:00,
2013-03-10 18:26:00,39.9,22.3,30.42,South,180,0.0,0.0,49,0.00,CLR,,0.00,WeatherDisplay:10.37,2013-03-10 22:26:00,
2013-03-10 18:31:00,39.6,22.0,30.42,South,180,0.0,0.0,49,0.00,CLR,,0.00,WeatherDisplay:10.37,2013-03-10 22:31:00,
2013-03-10 18:36:00,39.0,22.4,30.42,South,180,0.0,0.0,51,0.00,CLR,,0.00,WeatherDisplay:10.37,2013-03-10 22:36:00,
2013-03-10 18:42:00,38.5,22.4,30.42,South,180,0.0,0.0,52,0.00,CLR,,0.00,WeatherDisplay:10.37,2013-03-10 22:42:00,
2013-03-10 18:47:00,38.1,22.5,30.42,South,180,0.0,0.0,53,0.00,CLR,,0.00,WeatherDisplay:10.37,2013-03-10 22:47:00,
2013-03-10 18:52:00,37.9,22.3,30.43,South,180,0.0,0.0,53,0.00,CLR,,0.00,WeatherDisplay:10.37,2013-03-10 22:52:00,
2013-03-10 18:57:00,37.4,22.3,30.43,South,180,0.0,0.0,54,0.00,CLR,,0.00,WeatherDisplay:10.37,2013-03-10 22:57:00,
2013-03-10 19:02:00,37.0,22.8,30.43,South,180,0.0,0.0,56,0.00,CLR,,0.00,WeatherDisplay:10.37,2013-03-10 23:02:00,
2013-03-10 19:07:00,36.5,22.3,30.43,South,180,0.0,0.0,56,0.00,CLR,,0.00,WeatherDisplay:10.37,2013-03-10 23:07:00,
2013-03-10 19:12:00,36.3,22.5,30.44,South,180,0.0,0.0,57,0.00,CLR,,0.00,WeatherDisplay:10.37,2013-03-10 23:12:00,
2013-03-10 19:17:00,36.0,22.6,30.44,South,180,0.0,0.0,58,0.00,CLR,,0.00,WeatherDisplay:10.37,2013-03-10 23:17:00,
2013-03-10 19:22:00,35.8,22.4,30.44,South,180,0.0,0.0,58,0.00,CLR,,0.00,WeatherDisplay:10.37,2013-03-10 23:22:00,
2013-03-10 19:27:00,35.4,22.5,30.44,South,180,0.0,0.0,59,0.00,CLR,,0.00,WeatherDisplay:10.37,2013-03-10 23:27:00,
2013-03-10 19:32:00,35.4,22.5,30.44,South,180,0.0,0.0,59,0.00,CLR,,0.00,WeatherDisplay:10.37,2013-03-10 23:32:00,
2013-03-10 19:37:00,35.2,22.3,30.44,South,180,0.0,0.0,59,0.00,CLR,,0.00,WeatherDisplay:10.37,2013-03-10 23:37:00,
2013-03-10 19:42:00,35.2,23.1,30.44,South,180,0.0,0.0,61,0.00,CLR,,0.00,WeatherDisplay:10.37,2013-03-10 23:42:00,
2013-03-10 19:48:00,35.1,23.3,30.44,South,180,0.0,0.0,62,0.00,CLR,,0.00,WeatherDisplay:10.37,2013-03-10 23:48:00,
2013-03-10 19:53:00,35.1,23.7,30.44,South,180,0.0,0.0,63,0.00,CLR,,0.00,WeatherDisplay:10.37,2013-03-10 23:53:00,
2013-03-10 19:58:00,35.1,23.7,30.44,South,180,0.0,0.0,63,0.00,CLR,,0.00,WeatherDisplay:10.37,2013-03-10 23:58:00,
2013-03-10 20:03:00,34.9,23.6,30.44,South,180,0.0,0.0,63,0.00,CLR,,0.00,WeatherDisplay:10.37,2013-03-11 00:03:00,
2013-03-10 20:08:00,34.9,23.9,30.44,South,180,0.0,0.0,64,0.00,CLR,,0.00,WeatherDisplay:10.37,2013-03-11 00:08:00,
2013-03-10 20:13:00,34.9,23.9,30.44,South,180,0.0,0.0,64,0.00,CLR,,0.00,WeatherDisplay:10.37,2013-03-11 00:13:00,
2013-03-10 20:18:00,34.9,23.9,30.44,South,180,0.0,0.0,64,0.00,CLR,,0.00,WeatherDisplay:10.37,2013-03-11 00:18:00,
2013-03-10 20:23:00,34.9,24.3,30.44,South,180,0.0,0.0,65,0.00,CLR,,0.00,WeatherDisplay:10.37,2013-03-11 00:23:00,
2013-03-10 20:28:00,34.7,24.1,30.44,South,180,0.0,0.0,65,0.00,CLR,,0.00,WeatherDisplay:10.37,2013-03-11 00:28:00,
2013-03-10 20:33:00,34.7,24.5,30.44,South,180,0.0,0.0,66,0.00,CLR,,0.00,WeatherDisplay:10.37,2013-03-11 00:33:00,
2013-03-10 20:38:00,34.5,24.3,30.44,South,180,0.0,0.0,66,0.00,CLR,,0.00,WeatherDisplay:10.37,2013-03-11 00:38:00,
2013-03-10 20:43:00,34.3,24.2,30.44,South,180,0.0,0.0,66,0.00,CLR,,0.00,WeatherDisplay:10.37,2013-03-11 00:43:00,
2013-03-10 20:48:00,34.2,24.3,30.44,South,180,0.0,0.0,67,0.00,CLR,,0.00,WeatherDisplay:10.37,2013-03-11 00:48:00,
2013-03-10 20:53:00,34.0,24.2,30.44,South,180,0.0,0.0,67,0.00,CLR,,0.00,WeatherDisplay:10.37,2013-03-11 00:53:00,
2013-03-10 20:58:00,33.8,24.0,30.44,South,180,0.0,0.0,67,0.00,CLR,,0.00,WeatherDisplay:10.37,2013-03-11 00:58:00,
2013-03-10 21:03:00,33.6,24.2,30.44,South,180,0.0,0.0,68,0.00,CLR,,0.00,WeatherDisplay:10.37,2013-03-11 01:03:00,
2013-03-10 21:08:00,33.4,24.0,30.44,South,180,0.0,0.0,68,0.00,CLR,,0.00,WeatherDisplay:10.37,2013-03-11 01:08:00,
2013-03-10 21:13:00,33.1,23.7,30.43,South,180,0.0,0.0,68,0.00,CLR,,0.00,WeatherDisplay:10.37,2013-03-11 01:13:00,
2013-03-10 21:18:00,32.9,23.8,30.43,South,180,0.0,0.0,69,0.00,CLR,,0.00,WeatherDisplay:10.37,2013-03-11 01:18:00,
2013-03-10 21:23:00,32.9,23.8,30.43,South,180,0.0,0.0,69,0.00,CLR,,0.00,WeatherDisplay:10.37,2013-03-11 01:23:00,
2013-03-10 21:28:00,32.7,23.7,30.43,South,180,0.0,0.0,69,0.00,CLR,,0.00,WeatherDisplay:10.37,2013-03-11 01:28:00,
2013-03-10 21:33:00,32.5,23.8,30.44,South,180,0.0,0.0,70,0.00,CLR,,0.00,WeatherDisplay:10.37,2013-03-11 01:33:00,
2013-03-10 21:38:00,32.4,23.7,30.44,South,180,0.0,0.0,70,0.00,CLR,,0.00,WeatherDisplay:10.37,2013-03-11 01:38:00,
2013-03-10 21:43:00,32.2,23.5,30.44,South,180,0.0,0.0,70,0.00,CLR,,0.00,WeatherDisplay:10.37,2013-03-11 01:43:00,
2013-03-10 21:48:00,32.0,23.3,30.44,South,180,0.0,0.0,70,0.00,CLR,,0.00,WeatherDisplay:10.37,2013-03-11 01:48:00,
2013-03-10 21:53:00,31.8,23.5,30.43,South,180,0.0,0.0,71,0.00,CLR,,0.00,WeatherDisplay:10.37,2013-03-11 01:53:00,
2013-03-10 21:58:00,31.6,23.6,30.43,South,180,0.0,0.0,72,0.00,CLR,,0.00,WeatherDisplay:10.37,2013-03-11 01:58:00,
2013-03-10 22:04:00,31.6,23.6,30.43,South,180,0.0,0.0,72,0.00,CLR,,0.00,WeatherDisplay:10.37,2013-03-11 02:04:00,
2013-03-10 22:09:00,31.5,23.5,30.43,South,180,0.0,0.0,72,0.00,CLR,,0.00,WeatherDisplay:10.37,2013-03-11 02:09:00,
2013-03-10 22:14:00,31.3,23.6,30.42,South,180,0.0,0.0,73,0.00,CLR,,0.00,WeatherDisplay:10.37,2013-03-11 02:14:00,
2013-03-10 22:19:00,31.6,24.0,30.42,South,180,0.0,0.0,73,0.00,CLR,,0.00,WeatherDisplay:10.37,2013-03-11 02:19:00,
2013-03-10 22:24:00,31.8,24.1,30.42,South,180,0.0,0.0,73,0.00,CLR,,0.00,WeatherDisplay:10.37,2013-03-11 02:24:00,
2013-03-10 22:29:00,32.0,24.6,30.42,South,180,0.0,0.0,74,0.00,CLR,,0.00,WeatherDisplay:10.37,2013-03-11 02:29:00,
2013-03-10 22:34:00,32.0,24.6,30.43,South,180,0.0,0.0,74,0.00,CLR,,0.00,WeatherDisplay:10.37,2013-03-11 02:34:00,
2013-03-10 22:39:00,32.4,25.3,30.43,South,180,0.0,0.0,75,0.00,CLR,,0.00,WeatherDisplay:10.37,2013-03-11 02:39:00,
2013-03-10 22:44:00,32.4,25.3,30.43,South,180,0.0,0.0,75,0.00,CLR,,0.00,WeatherDisplay:10.37,2013-03-11 02:44:00,
2013-03-10 22:49:00,32.4,25.3,30.43,South,180,0.0,0.0,75,0.00,CLR,,0.00,WeatherDisplay:10.37,2013-03-11 02:49:00,
2013-03-10 22:54:00,32.5,25.5,30.42,South,180,0.0,0.0,75,0.00,CLR,,0.00,WeatherDisplay:10.37,2013-03-11 02:54:00,
2013-03-10 22:59:00,32.4,25.6,30.42,South,180,0.0,0.0,76,0.00,CLR,,0.00,WeatherDisplay:10.37,2013-03-11 02:59:00,
2013-03-10 23:04:00,32.5,25.8,30.42,South,180,0.0,0.0,76,0.00,CLR,,0.00,WeatherDisplay:10.37,2013-03-11 03:04:00,
2013-03-10 23:09:00,32.5,25.8,30.42,South,180,0.0,0.0,76,0.00,CLR,,0.00,WeatherDisplay:10.37,2013-03-11 03:09:00,
2013-03-10 23:14:00,32.5,25.8,30.42,South,180,0.0,0.0,76,0.00,CLR,,0.00,WeatherDisplay:10.37,2013-03-11 03:14:00,
2013-03-10 23:19:00,32.5,25.8,30.42,South,180,0.0,0.0,76,0.00,CLR,,0.00,WeatherDisplay:10.37,2013-03-11 03:19:00,
2013-03-10 23:24:00,32.7,26.3,30.42,South,180,0.0,0.0,77,0.00,CLR,,0.00,WeatherDisplay:10.37,2013-03-11 03:24:00,
2013-03-10 23:29:00,32.9,26.5,30.42,South,180,0.0,0.0,77,0.00,CLR,,0.00,WeatherDisplay:10.37,2013-03-11 03:29:00,
2013-03-10 23:34:00,32.9,26.5,30.42,South,180,0.0,0.0,77,0.00,CLR,,0.00,WeatherDisplay:10.37,2013-03-11 03:34:00,
2013-03-10 23:39:00,33.1,27.0,30.42,South,180,0.0,0.0,78,0.00,CLR,,0.00,WeatherDisplay:10.37,2013-03-11 03:39:00,
2013-03-10 23:44:00,33.1,27.0,30.42,South,180,0.0,0.0,78,0.00,CLR,,0.00,WeatherDisplay:10.37,2013-03-11 03:44:00,
2013-03-10 23:49:00,33.1,27.0,30.42,South,180,0.0,0.0,78,0.00,CLR,,0.00,WeatherDisplay:10.37,2013-03-11 03:49:00,
2013-03-10 23:54:00,33.1,27.0,30.41,South,180,0.0,0.0,78,0.00,CLR,,0.00,WeatherDisplay:10.37,2013-03-11 03:54:00,
2013-03-10 23:59:00,33.1,27.3,30.41,South,180,0.0,0.0,79,0.00,CLR,,0.00,WeatherDisplay:10.37,2013-03-11 03:59:00,